GFSSW_850_rhum_021.txt.gz
RH
39 36 31 27 23 22 20 21 21 20 25 18 21 18 12 20 21 20 21 18 18 13 10 15 18 17 11 8 8 7 7 8 8 8 8 7 7 8 11 15 16 17 22 26 45
43 39 33 28 24 22 22 22 20 24 19 24 22 13 19 22 21 16 18 18 16 11 15 16 14 10 8 8 7 7 6 7 6 6 6 6 6 7 11 11 12 19 23 35 46
44 40 35 29 25 24 23 21 22 23 23 24 19 16 22 21 27 16 17 18 12 11 18 13 9 8 8 7 7 6 7 6 6 6 5 5 6 6 7 9 11 14 19 33 41
44 40 36 30 26 24 22 21 25 20 24 24 18 19 21 18 16 18 16 18 12 11 16 12 10 8 7 7 7 7 6 5 6 7 7 6 7 7 6 8 10 11 19 30 37
43 39 34 29 26 24 23 25 20 24 23 26 16 16 17 25 16 18 17 17 16 15 12 10 8 7 6 6 6 7 7 6 7 8 8 9 8 8 8 9 10 14 20 27 34
40 37 34 30 27 24 25 22 23 21 26 24 17 16 20 17 19 17 16 16 16 12 11 10 10 9 6 7 8 10 10 11 11 11 11 11 10 11 10 10 9 14 18 22 25
37 34 32 29 25 24 23 22 20 26 26 21 19 17 26 18 18 16 15 15 16 16 12 14 12 10 10 13 12 11 12 12 12 12 12 11 10 10 10 11 11 11 13 18 22
32 31 28 24 25 22 21 20 25 27 24 21 20 19 20 19 18 15 13 14 16 17 17 16 15 14 13 14 11 11 11 13 12 12 14 13 13 10 12 13 12 12 13 15 19
29 28 26 26 22 20 20 24 26 26 24 23 20 27 16 16 16 15 15 14 17 19 18 15 15 13 15 13 12 10 12 10 14 12 12 12 12 10 13 13 12 12 12 14 17
34 30 29 24 21 20 22 25 26 25 23 22 26 19 15 15 15 16 16 19 17 18 17 15 13 12 9 10 12 10 10 11 10 13 10 11 11 11 13 14 13 12 13 13 15
33 31 28 24 22 22 25 25 26 28 21 18 14 16 15 15 15 16 18 17 16 15 14 13 13 14 12 12 12 10 12 12 11 13 15 13 13 13 14 14 15 15 16 16 18
33 30 27 25 24 24 26 34 34 22 19 19 19 19 20 18 14 17 17 16 14 13 12 11 16 15 14 14 14 14 15 15 15 15 17 15 14 14 15 18 17 18 20 23 27
43 40 28 25 25 26 45 39 18 20 16 18 19 17 19 17 19 19 17 14 11 11 10 15 16 16 17 17 18 17 19 22 21 17 16 17 17 16 16 17 18 20 21 22 24
40 41 35 32 34 38 45 21 19 23 18 15 15 16 17 18 19 22 22 18 13 12 12 16 18 18 18 21 21 21 21 24 23 21 19 17 21 18 17 18 19 21 23 24 25
37 34 36 37 40 30 31 21 18 30 31 18 16 20 17 18 18 21 22 17 14 16 18 20 19 21 22 24 22 23 25 25 25 24 19 18 17 22 16 20 21 24 27 29 31
31 30 31 30 37 33 22 24 23 40 34 20 16 18 19 19 20 21 20 21 21 16 16 20 21 21 24 22 22 23 26 24 26 24 31 23 22 23 21 22 23 26 32 35 37
29 30 32 35 41 25 20 34 25 40 20 21 20 18 19 22 22 20 21 24 23 26 26 21 23 23 25 24 23 22 25 35 41 38 36 25 22 32 26 25 26 29 34 37 39
30 31 30 26 27 22 22 29 41 26 19 16 18 19 23 21 24 24 21 24 24 22 21 25 36 25 24 28 30 27 29 46 44 39 30 26 23 28 25 27 30 30 32 34 37
31 31 38 27 26 21 33 42 31 22 19 19 18 21 24 24 23 26 28 28 29 28 29 29 31 25 27 26 26 29 36 29 45 57 51 22 25 28 26 28 29 30 32 36 38
43 40 46 31 24 25 37 40 27 23 20 17 23 24 25 25 26 26 28 30 30 29 28 29 35 25 25 27 29 29 28 41 36 60 40 19 19 22 34 30 27 27 29 34 36
45 32 44 28 25 32 41 31 26 28 25 22 24 26 25 29 26 30 31 32 29 30 27 24 29 29 23 29 27 29 33 33 28 37 45 38 25 23 24 25 27 26 32 36 39
43 34 36 30 29 32 35 26 28 28 31 28 26 25 28 28 31 34 34 34 36 32 31 32 32 34 22 26 29 28 30 30 41 34 39 52 41 22 22 26 29 30 34 38 43
33 44 40 42 54 54 35 33 29 29 27 28 33 29 30 32 41 34 36 42 37 34 38 34 38 35 26 32 32 32 29 30 34 46 45 67 44 22 23 24 25 28 38 40 41
38 55 42 46 38 27 33 32 36 37 35 32 32 30 32 35 32 40 40 42 46 42 44 43 34 34 37 27 23 27 26 23 29 50 49 43 32 24 22 26 27 30 37 39 42
41 43 44 48 41 30 29 29 31 34 33 31 32 30 33 41 36 39 36 42 42 47 42 38 46 34 32 26 24 26 28 28 29 30 46 40 33 27 26 29 35 38 39 41 43
36 42 46 44 35 32 42 31 28 32 30 31 31 29 28 41 28 36 30 29 30 39 39 38 51 56 48 30 27 34 28 27 28 32 32 32 34 26 31 31 37 40 48 52 50
38 46 43 52 38 39 36 32 29 33 41 29 29 29 42 33 38 42 42 38 35 37 44 49 57 55 65 48 57 79 41 30 29 30 34 43 33 27 32 38 51 54 57 57 67

GFSSW_850_rhum_024.txt.gz
RH
40 39 34 31 28 23 22 20 19 18 17 23 17 19 13 17 20 21 26 20 18 15 9 10 19 18 16 10 8 8 9 12 11 12 9 7 7 8 11 14 14 20 25 37 47
41 40 37 33 30 26 24 22 20 18 21 18 22 18 14 21 20 30 22 16 15 8 9 18 16 14 12 8 7 6 10 8 6 6 6 6 6 7 11 11 14 22 30 41 42
41 40 38 36 31 26 24 22 20 19 22 22 22 15 20 22 23 20 16 16 9 8 18 17 10 10 8 7 7 6 8 6 5 6 5 5 6 7 8 9 13 17 32 38 40
42 42 40 35 29 25 23 21 20 24 21 24 20 18 21 20 22 17 16 15 7 11 17 11 9 9 7 7 6 7 6 5 5 6 5 5 5 6 6 9 10 14 20 35 36
42 41 38 34 28 25 23 20 23 20 24 24 19 19 20 25 17 16 16 14 12 12 16 10 9 7 7 6 6 6 5 5 6 7 8 8 6 7 7 9 10 15 20 30 34
40 39 38 33 29 26 22 23 20 23 24 25 17 19 18 26 16 15 15 14 12 11 10 9 9 8 5 5 7 7 7 8 8 8 9 8 9 10 7 8 9 14 19 24 30
39 38 36 31 27 24 23 20 23 22 27 22 16 17 29 20 14 14 13 14 14 14 13 11 10 8 8 10 9 9 10 10 10 10 10 10 10 10 10 9 9 11 14 19 22
36 36 33 29 25 24 20 22 22 27 26 21 14 15 30 19 16 14 12 11 13 14 15 13 12 13 13 11 9 9 10 14 11 10 12 12 14 8 10 10 10 10 11 12 18
32 32 29 24 24 21 22 22 27 28 24 20 18 18 23 14 14 13 12 12 14 15 16 14 14 10 11 12 12 11 13 13 14 10 11 12 13 9 11 12 11 11 12 13 14
31 28 27 26 22 22 22 26 27 25 24 21 26 29 16 13 13 13 13 16 14 16 14 14 13 12 12 12 18 14 9 10 11 12 9 9 10 10 12 12 12 12 11 12 13
34 31 28 24 22 22 26 27 31 29 29 18 14 16 12 11 11 13 14 15 16 15 16 12 14 15 13 11 10 10 10 10 10 12 13 11 11 12 13 13 14 14 14 16 30
36 32 28 25 24 25 29 44 34 26 20 17 16 16 15 15 13 14 16 15 14 15 12 10 14 14 11 11 12 12 14 14 13 13 14 13 14 13 14 16 16 17 18 28 30
34 30 27 24 25 26 39 48 42 22 16 16 16 14 17 16 14 14 17 13 12 12 9 19 16 13 13 14 16 14 16 22 20 16 14 15 16 16 16 17 20 21 22 24 27
43 32 26 26 28 35 43 29 33 23 20 14 14 13 16 16 16 16 16 17 11 10 10 16 14 15 16 17 19 19 21 22 20 20 21 15 22 18 18 19 20 22 23 24 26
42 42 34 34 50 36 44 21 19 31 41 15 14 16 14 17 16 17 15 14 14 13 14 18 17 19 19 23 20 21 22 22 22 23 21 17 22 21 18 22 23 25 28 29 32
33 36 36 35 45 49 29 20 16 54 44 18 14 15 15 16 17 17 16 18 18 13 15 18 17 20 22 20 19 19 24 22 22 25 43 21 20 31 20 21 25 28 32 35 36
31 31 41 46 53 25 21 27 30 44 15 19 17 16 17 19 18 17 18 19 22 24 25 20 21 21 20 23 21 21 25 48 61 52 52 25 26 32 23 23 25 31 35 36 38
30 31 32 37 42 24 23 36 45 21 16 13 15 17 21 19 20 19 19 23 21 24 21 25 37 23 21 25 27 26 25 60 56 62 47 23 23 34 25 27 29 30 32 34 36
30 29 34 28 25 23 45 49 32 18 16 17 16 20 22 22 22 22 24 26 26 28 30 26 31 22 22 22 22 27 37 24 37 58 60 23 31 26 25 27 27 29 30 33 36
35 33 46 26 23 22 49 49 26 19 14 15 20 18 22 21 23 23 24 26 26 26 22 25 35 21 20 22 27 23 22 41 52 64 47 23 22 39 32 31 28 26 27 31 33
46 38 45 29 23 38 48 39 24 21 20 17 18 20 20 22 22 25 27 28 25 26 23 23 26 27 20 27 23 26 28 30 26 42 54 52 31 22 25 26 28 26 28 34 37
45 40 44 27 34 30 37 24 24 24 27 24 21 20 23 24 26 28 31 35 31 26 29 27 29 49 22 20 22 23 27 28 63 48 57 59 44 22 22 25 27 30 33 36 37
40 50 33 27 49 59 31 26 23 23 21 24 27 24 25 27 37 30 38 36 32 36 44 34 40 52 32 31 29 24 24 26 35 56 59 69 45 21 22 34 28 29 30 35 39
44 55 39 44 42 31 34 32 34 31 28 25 26 26 28 32 28 35 42 39 40 42 38 44 32 34 45 29 23 25 22 22 25 66 56 53 37 26 24 31 31 32 35 37 40
46 41 32 46 40 29 26 26 31 35 28 27 28 26 29 36 33 35 36 42 39 41 38 37 45 35 32 24 23 24 26 25 28 29 44 39 30 26 30 30 33 46 47 49 48
47 39 40 33 29 30 40 28 27 24 28 27 28 26 27 39 31 35 30 30 33 35 36 36 58 61 54 26 26 33 29 30 27 25 26 32 32 24 28 42 45 46 46 48 62
43 40 39 45 36 39 38 29 25 28 36 26 25 29 52 40 41 38 36 32 30 36 40 48 67 68 74 57 62 83 51 28 28 26 30 45 34 25 41 46 49 53 58 69 70

GFSSW_850_rhum_027.txt.gz
RH
35 36 37 36 32 27 22 20 18 15 14 15 22 17 17 13 16 20 20 24 23 20 13 10 14 14 16 17 14 14 14 15 13 13 12 8 9 8 14 15 24 25 44 48 44
36 37 39 39 34 29 23 20 18 16 15 19 20 20 17 16 20 20 26 28 17 14 8 8 12 15 18 13 13 10 16 9 8 10 9 7 7 7 13 17 36 45 46 47 43
37 39 41 40 35 28 22 20 17 17 17 22 20 21 18 21 22 22 19 17 10 7 11 18 19 18 14 12 9 7 10 7 8 6 6 7 7 9 13 18 34 46 47 43 43
39 40 41 39 34 27 22 19 18 17 22 20 23 20 20 23 37 16 16 10 6 8 15 15 14 14 11 12 7 8 6 6 7 7 5 6 5 6 10 13 20 36 40 40 42
40 40 41 37 31 26 22 20 18 20 20 24 23 21 22 22 24 15 15 15 12 11 14 14 15 9 12 9 7 7 7 6 6 8 8 6 6 8 10 12 16 34 38 38 38
40 41 40 35 29 25 23 20 20 20 24 24 23 21 21 36 17 15 14 14 14 14 15 16 11 9 8 10 9 6 6 6 6 8 9 9 10 9 10 10 17 28 35 33 34
39 38 36 32 27 24 20 21 21 24 24 26 21 19 19 21 17 14 13 13 14 14 15 11 11 11 12 12 8 7 12 11 10 10 10 10 13 12 9 9 13 17 26 29 32
36 36 34 28 24 21 22 21 23 24 28 25 18 18 16 20 17 14 12 12 10 14 15 12 11 13 13 9 9 10 14 18 14 12 11 12 20 12 9 9 12 12 13 24 28
33 33 31 26 22 23 22 23 24 28 27 22 19 19 33 16 12 13 11 14 13 14 14 10 13 13 11 14 18 14 20 19 16 12 15 15 18 13 10 10 10 11 11 11 18
32 30 27 24 25 22 23 25 28 27 25 22 22 42 26 16 14 12 12 14 14 15 15 14 14 18 20 22 28 18 18 18 20 12 9 11 13 16 13 12 12 12 13 31 32
32 28 26 25 23 22 26 29 29 30 29 23 20 25 13 12 11 12 13 15 16 16 22 15 24 25 16 14 12 12 16 20 18 15 14 15 15 19 18 16 16 38 37 43 45
34 31 27 24 24 24 28 38 45 44 29 22 19 17 13 15 13 14 14 16 15 23 20 19 25 16 12 12 16 16 19 27 18 16 16 17 18 21 21 26 32 34 40 42 44
36 31 26 24 23 25 28 49 47 34 26 17 16 14 16 17 16 14 16 17 18 20 20 25 17 12 15 24 24 26 29 26 24 21 18 19 22 24 24 23 26 29 33 36 44
35 29 24 24 25 25 31 49 43 20 34 19 16 14 16 16 17 16 15 16 14 19 22 22 16 18 18 26 25 31 28 26 26 28 34 21 36 28 28 29 29 30 31 36 41
46 32 27 29 53 47 49 41 21 24 60 19 17 14 14 18 17 17 13 16 21 16 23 21 21 28 29 26 22 28 23 26 27 32 32 32 35 31 28 35 36 34 32 36 38
40 37 32 39 50 45 40 21 17 78 51 22 17 18 16 17 17 16 16 17 16 17 22 22 20 24 25 22 21 20 29 33 33 37 61 41 39 38 32 35 40 38 36 36 38
34 38 43 45 53 34 23 18 62 82 24 20 21 20 22 20 20 20 20 25 33 30 30 23 27 24 21 29 24 28 40 73 71 84 69 50 48 52 40 34 39 42 39 39 39
35 35 38 34 43 24 25 59 60 28 22 16 19 20 26 20 22 22 25 33 31 37 37 42 42 29 24 28 30 33 33 77 62 83 69 34 48 46 38 35 36 36 36 38 39
31 31 30 28 28 25 46 82 59 30 18 20 20 26 25 23 25 27 34 33 32 33 41 46 38 26 26 24 28 30 45 26 53 63 79 47 40 38 35 35 32 34 36 37 38
30 30 33 26 23 24 71 77 34 22 17 18 26 25 31 28 28 31 32 32 30 29 29 28 41 23 25 22 28 28 25 54 69 64 59 46 51 66 43 38 35 32 34 36 38
36 38 40 34 22 34 77 63 26 20 27 29 25 21 27 28 29 32 37 33 34 27 26 36 43 32 21 30 32 37 39 38 40 65 75 79 52 36 45 41 42 39 37 38 38
50 59 50 30 40 50 59 38 22 24 26 26 27 22 28 25 33 36 46 42 30 33 36 31 46 56 34 26 24 25 32 39 76 56 79 83 62 26 44 37 34 33 33 38 41
47 50 50 34 67 82 44 29 24 28 27 26 32 32 30 36 42 51 51 39 39 48 54 42 45 73 49 41 35 26 26 38 59 71 60 72 58 30 35 34 35 36 43 45 45
52 75 49 54 52 53 47 35 35 31 30 26 30 27 31 38 35 51 53 44 41 40 35 46 40 51 68 38 30 28 28 27 52 85 72 72 52 36 51 47 49 47 47 49 55
54 59 36 67 49 53 42 40 41 40 31 28 29 32 36 39 41 54 54 51 45 37 40 49 56 51 47 35 31 28 31 33 35 40 55 50 45 38 50 53 52 52 55 57 62
57 56 29 36 24 42 53 37 42 36 36 34 33 33 41 46 51 50 50 48 50 41 45 52 75 54 50 46 46 42 44 46 40 35 35 38 41 46 51 51 59 65 67 72 72
50 40 47 58 41 61 51 33 33 38 34 33 37 60 64 51 42 44 37 35 41 46 53 68 76 82 81 73 79 76 51 38 32 33 34 48 46 54 57 60 70 75 77 75 66

GFSSW_850_rhum_030.txt.gz
RH
32 32 33 34 34 30 26 23 20 18 14 14 15 19 19 17 17 16 17 22 21 21 20 13 11 12 17 20 18 15 18 19 15 16 14 11 15 18 36 45 35 42 43 39 39
34 34 34 35 34 32 27 23 20 19 15 16 16 21 18 19 17 18 21 26 23 18 14 11 10 15 20 17 15 15 18 14 11 12 10 8 12 14 29 45 52 48 45 38 38
35 35 35 36 35 32 28 23 21 17 17 16 22 20 22 18 21 18 22 16 16 16 13 11 12 19 20 16 13 11 10 8 8 8 7 8 10 14 36 48 49 51 44 40 38
37 37 37 37 34 31 27 23 21 18 18 21 21 24 19 22 35 19 16 13 14 11 11 15 19 25 16 14 10 8 7 7 8 7 7 7 7 10 14 32 32 41 47 42 41
40 38 38 37 33 30 25 22 20 19 20 22 25 22 21 24 20 16 15 15 16 14 12 14 20 17 13 10 7 8 7 7 9 8 6 6 8 11 12 27 35 44 42 41 42
39 39 38 36 32 29 24 21 20 21 24 25 25 22 23 37 22 18 14 14 14 15 15 16 16 14 13 12 8 6 7 7 8 9 9 10 11 10 16 25 40 40 38 34 36
39 38 36 34 31 27 22 20 21 25 25 26 25 21 23 19 19 15 14 13 12 15 15 14 13 13 14 12 6 7 9 10 9 10 10 11 13 14 17 34 41 40 38 35 34
37 35 34 32 28 24 22 22 24 25 26 28 23 22 20 20 20 16 13 12 12 14 14 11 11 12 10 10 11 13 16 17 13 12 10 12 17 13 15 32 42 40 38 36 38
34 33 32 30 27 23 23 24 25 26 30 28 24 24 17 23 16 14 12 15 13 10 10 10 14 15 11 18 20 20 19 20 16 14 14 15 18 15 10 18 25 31 30 36 39
32 31 30 27 24 24 24 25 28 30 29 27 33 35 15 18 13 12 11 14 14 15 14 14 15 22 22 24 26 24 20 21 20 15 14 14 18 19 13 12 18 29 48 51 49
31 30 27 24 25 24 25 30 30 32 29 15 16 28 19 15 14 12 10 12 16 17 21 19 24 22 18 16 15 14 21 23 18 15 14 20 23 23 27 40 50 56 57 58 58
33 28 26 26 24 25 28 36 54 50 24 13 20 24 19 13 15 13 14 16 17 22 20 25 24 17 16 22 26 22 27 25 20 19 16 23 27 33 36 44 50 54 56 53 53
34 30 26 24 24 26 35 48 45 39 42 19 18 20 16 17 16 15 16 18 19 20 22 28 18 14 24 27 27 35 32 28 24 23 21 26 28 37 35 40 46 50 49 46 43
33 29 24 25 28 27 28 50 40 33 38 21 17 15 16 16 17 16 15 16 19 23 23 20 17 22 28 28 26 37 27 26 26 31 28 23 41 30 38 42 41 50 51 47 45
32 29 27 27 55 31 48 49 30 45 48 18 17 13 15 18 17 15 14 17 19 16 24 24 29 31 31 26 23 30 23 27 27 33 36 35 41 33 40 47 48 49 52 51 46
39 28 28 45 55 47 43 27 31 74 44 23 19 18 16 18 18 16 16 18 19 23 24 24 23 25 25 24 22 22 28 43 40 45 61 43 43 43 46 45 48 46 49 47 43
43 35 41 47 43 38 27 26 56 74 24 23 22 20 22 22 21 20 25 34 40 33 31 30 30 26 24 32 29 32 50 71 68 77 69 49 56 53 42 42 44 49 45 44 43
40 41 47 42 42 29 23 47 59 42 29 20 24 26 25 23 23 25 29 38 34 39 39 45 46 31 27 28 30 31 46 74 57 76 65 44 59 57 47 43 40 39 40 40 41
39 42 36 32 34 28 37 77 62 42 22 23 24 30 28 24 25 32 34 36 33 34 40 47 39 28 25 25 28 32 45 36 65 69 75 57 48 40 42 43 41 43 49 49 41
33 33 29 26 25 25 71 79 50 26 26 23 28 29 32 29 29 35 36 35 32 30 33 32 42 28 26 25 28 28 29 54 70 60 59 52 55 61 55 50 46 44 41 42 44
37 28 31 28 23 27 74 69 39 25 28 27 28 27 30 32 33 40 42 40 36 33 29 37 43 38 32 31 34 37 41 44 49 69 73 79 57 40 48 50 46 40 41 42 44
48 58 47 39 29 66 61 44 26 26 26 29 29 35 30 30 42 54 48 41 40 41 34 37 50 56 34 27 25 27 36 48 74 51 81 81 62 42 46 41 39 40 45 48 49
46 68 62 37 52 78 48 36 29 28 28 27 32 34 34 40 57 54 51 48 36 48 48 40 49 70 53 46 40 29 31 53 61 71 59 71 57 38 43 49 50 52 54 54 55
48 79 60 57 56 48 51 37 39 33 31 30 31 31 38 42 51 56 54 50 35 37 39 47 50 51 63 46 37 28 29 47 55 79 69 72 48 45 58 60 57 60 60 59 60
58 58 37 60 51 58 49 40 41 39 32 30 32 32 39 45 49 63 56 51 45 38 40 52 57 52 47 40 35 31 33 35 40 48 61 51 57 57 63 63 61 63 64 65 66
56 61 38 38 26 46 60 48 46 39 35 34 34 44 44 52 49 62 56 54 51 41 48 60 71 50 42 59 59 41 44 51 49 40 40 55 73 60 60 62 66 65 65 67 59
51 51 28 71 48 56 59 44 47 40 40 45 52 62 63 52 51 47 44 42 46 50 64 68 76 73 57 78 66 65 50 43 34 41 39 51 66 61 69 73 75 76 69 57 56

GFSSW_850_rhum_033.txt.gz
RH
30 30 29 30 31 34 32 29 25 21 17 16 13 13 17 21 17 15 11 14 22 22 24 17 15 12 16 20 19 15 21 20 21 22 17 27 18 30 45 44 42 46 52 57 53
32 32 30 32 32 34 33 30 25 21 18 15 15 16 22 19 16 12 14 19 25 29 20 17 14 14 21 19 18 18 24 20 14 19 19 13 30 39 45 51 53 44 49 54 47
33 34 32 35 34 35 34 31 27 21 19 15 18 23 22 19 20 16 21 20 22 25 20 18 16 16 20 19 15 14 12 9 10 11 12 14 24 32 50 56 47 44 49 48 45
36 36 35 36 36 35 35 31 26 20 18 18 23 23 23 21 28 17 17 16 16 18 18 17 17 22 26 19 14 8 8 8 8 8 9 12 12 34 27 39 36 37 40 42 42
38 38 37 37 37 37 35 30 23 19 20 21 24 24 22 26 19 21 17 16 16 17 14 14 21 23 18 13 10 8 8 9 7 7 7 8 11 13 16 32 42 40 40 39 38
40 39 38 37 37 36 33 27 22 20 21 25 26 25 26 30 22 20 18 16 15 16 16 16 16 18 15 8 7 7 8 9 9 9 8 12 12 12 20 42 46 43 41 40 37
40 38 37 36 36 34 30 26 22 21 25 26 27 26 26 17 20 19 18 14 13 16 16 15 13 17 14 13 8 8 10 10 10 10 10 12 14 16 28 46 47 46 43 40 39
40 36 36 35 34 33 29 24 22 26 27 28 30 27 21 16 19 16 15 13 12 14 14 11 12 13 11 10 12 15 16 16 12 12 12 12 17 13 36 48 50 49 49 50 49
38 35 35 34 32 29 26 25 27 27 29 31 29 28 17 18 19 14 13 13 13 15 11 13 13 14 13 19 20 22 20 18 17 13 14 14 17 16 28 46 50 49 47 48 49
37 34 34 32 28 25 26 27 27 30 32 32 42 33 14 16 13 13 11 13 14 13 9 14 15 21 24 21 21 19 20 20 20 17 17 16 18 26 19 34 43 47 49 48 52
37 34 32 28 25 26 26 31 36 34 34 19 19 19 21 17 15 12 11 12 16 17 24 19 26 21 19 17 17 19 19 23 19 17 19 24 36 45 54 46 63 66 65 66 71
38 32 29 26 26 25 28 39 56 49 34 16 19 18 19 20 19 13 13 16 17 24 21 26 24 18 22 28 24 26 25 24 22 23 26 38 44 53 53 62 66 68 67 63 62
36 32 28 26 26 26 39 45 47 43 43 23 14 16 19 18 17 15 16 18 19 20 22 25 19 22 24 30 34 37 30 29 25 25 27 32 40 51 47 56 62 62 60 57 56
36 32 28 26 29 29 33 54 48 33 41 24 18 17 16 17 17 16 16 16 20 21 25 22 28 27 29 28 31 35 28 26 26 27 34 27 54 38 44 53 59 62 55 53 52
38 31 30 28 35 28 40 51 38 30 54 18 18 14 16 18 16 15 14 17 19 21 24 25 29 30 30 26 25 30 25 27 28 37 39 36 53 44 50 57 58 61 56 50 47
40 28 28 47 50 34 45 29 28 67 39 21 19 17 18 19 19 16 18 19 21 27 27 27 25 25 25 25 25 23 34 47 52 49 60 43 46 51 56 55 56 56 56 50 47
38 28 32 53 52 40 28 26 51 79 25 26 25 18 21 22 22 21 34 38 36 34 34 34 32 28 26 30 28 36 49 69 70 75 70 50 57 53 43 46 50 56 56 54 51
39 31 46 49 47 28 23 39 54 45 29 22 25 24 27 25 29 29 34 39 35 37 43 48 45 32 28 29 32 36 46 72 56 73 64 50 68 60 52 44 44 48 50 51 49
42 47 47 43 36 29 25 60 61 51 24 27 28 30 30 26 32 34 36 38 34 35 40 45 38 29 25 26 29 34 45 39 72 73 74 64 52 48 47 54 50 47 46 48 54
47 46 37 32 29 26 61 64 58 36 26 26 32 32 34 30 34 38 38 37 32 34 34 40 42 29 26 26 28 29 34 56 71 61 58 58 64 69 57 59 54 50 52 53 49
41 38 38 28 27 25 62 69 54 27 29 24 30 33 32 33 37 43 43 41 38 35 32 38 40 37 34 32 34 37 42 51 56 72 75 78 63 42 54 53 58 51 51 51 53
36 54 48 30 33 69 67 55 35 27 27 31 34 32 36 35 51 48 49 43 46 41 33 40 51 58 35 34 32 30 38 47 65 48 84 80 62 42 52 49 45 51 50 51 53
45 76 64 36 53 80 48 40 35 28 29 30 32 36 37 52 56 55 53 48 39 46 44 39 50 65 50 46 38 32 39 60 62 70 62 72 58 42 53 57 54 54 58 58 57
49 84 68 58 38 46 46 42 39 34 32 32 33 36 41 52 59 60 56 51 36 39 44 45 58 49 58 44 42 31 32 50 53 78 68 68 45 63 66 68 64 61 60 63 64
52 60 51 72 67 66 48 43 42 38 32 32 33 35 42 50 56 64 58 52 43 42 46 50 55 52 48 48 37 32 32 48 51 51 58 51 58 53 68 71 68 66 67 65 62
59 57 41 44 36 57 62 53 45 39 35 36 39 50 41 48 49 64 58 51 39 44 56 64 70 47 45 64 62 43 38 43 47 45 56 64 75 64 62 66 71 70 69 65 57
56 58 31 70 59 60 67 48 48 44 51 45 49 57 56 54 52 51 48 47 48 53 71 67 74 62 46 75 54 51 43 50 44 42 49 78 65 66 76 71 72 71 67 54 50